Regional Weather Roundup
Issued by NWS

Home | Current Version | Previous Version | Graphics & Text | Print | Product List | Glossary On
Versions: 1 2 3 4 5 6 7 8 9 10 11 12 13 14 15 16 17 18 19 20 21 22 23 24 25 26 27 28 29 30 31 32 33 34 35 36 37 38 39 40 41 42 43 44 45 46 47 48 49 50
000
ASUS43 KOAX 011802
RWRNE

WEATHER ROUNDUP FOR NEBRASKA
NATIONAL WEATHER SERVICE OMAHA NE
1200 PM CST SUN MAR 01 2015

NOTES: SATELLITE DATA IS BEING USED TO AUGMENT CLOUD COVER ABOVE
       12000 FEET.
       "FAIR" INDICATES FEW OR NO CLOUDS BELOW 12,000 FEET WITH NO
       SIGNIFICANT WEATHER AND/OR OBSTRUCTIONS TO VISIBILITY.

  * THESE STATIONS DO NOT REPORT WEATHER SUCH AS RAIN...SNOW OR FOG.

NEZ001>004-019>022-054>056-011900-
NEBRASKA PANHANDLE

CITY           SKY/WX    TMP DP  RH WIND       PRES   REMARKS
SCOTTSBLUFF    MOSUNNY   30  13  49 VRB6G17   30.28F WCI  24
6HR MIN TEMP:  14; 6HR MAX TEMP:  30;

ALLIANCE       CLOUDY    28  11  48 NW9       30.26F WCI  19
6HR MIN TEMP:  12; 6HR MAX TEMP:  30;

CHADRON        SUNNY     31  12  45 W14       30.30F WCI  21
6HR MIN TEMP:  18; 6HR MAX TEMP:  31;

SIDNEY         PTSUNNY   27  14  58 N8        30.28R WCI  19
6HR MIN TEMP:  12; 6HR MAX TEMP:  27;

$$

NEZ057>060-069>072-079>082-011900-
SOUTHWEST NEBRASKA

CITY           SKY/WX    TMP DP  RH WIND       PRES   REMARKS
NORTH PLATTE   SUNNY     32   9  38 CALM      30.33S
6HR MIN TEMP:  15; 6HR MAX TEMP:  33;

IMPERIAL         N/A     31  11  43 N9G16     30.31R WCI  23
6HR MIN TEMP:  13; 6HR MAX TEMP:  31;

MCCOOK         SUNNY     35  13  40 N10       30.33S WCI  27
6HR MIN TEMP:  13; 6HR MAX TEMP:  36;

$$

NEZ005>010-023>029-035>040-094-011900-
NORTH CENTRAL NEBRASKA

CITY           SKY/WX    TMP DP  RH WIND       PRES   REMARKS
VALENTINE      SUNNY     31  12  45 W15       30.31F WCI  20
6HR MIN TEMP:  15; 6HR MAX TEMP:  31; 6HR PCP:  0.01;

AINSWORTH      CLOUDY    30  12  47 W15G23    30.32S WCI  19
BROKEN BOW     SUNNY     33  13  43 VRB5      30.34R WCI  29
6HR MIN TEMP:  19; 6HR MAX TEMP:  33;

ORD            SUNNY     32  11  41 NW10      30.35S WCI  24
6HR MIN TEMP:  15; 6HR MAX TEMP:  32;

$$

NEZ041-046>049-061>064-073>077-083>087-011900-
SOUTH CENTRAL NEBRASKA

CITY           SKY/WX    TMP DP  RH WIND       PRES   REMARKS
GRAND ISLAND   SUNNY     33  12  41 N8        30.37S WCI  26
6HR MIN TEMP:  14; 6HR MAX TEMP:  33;

HASTINGS       SUNNY     35  12  38 N9        30.35R WCI  28
6HR MIN TEMP:  12; 6HR MAX TEMP:  35;

KEARNEY *      SUNNY     34  12  40 N7G20     30.35S WCI  28
$$

NEZ011>018-030>034-042>045-011900-
NORTHEAST NEBRASKA

CITY           SKY/WX    TMP DP  RH WIND       PRES   REMARKS
NORFOLK        CLOUDY    32  14  47 NW12      30.35F WCI  23
6HR MIN TEMP:  14; 6HR MAX TEMP:  32;

BLAIR          SUNNY     31  18  60 NW8       30.37S WCI  23
COLUMBUS *     SUNNY     32  10  40 N10       30.39F WCI  24
TEKAMAH        MOSUNNY   33  14  45 N9        30.39S WCI  25
6HR MIN TEMP:  14; 6HR MAX TEMP:  33;

$$

NEZ050>053-065>068-078-088>093-011900-
SOUTHEAST NEBRASKA

CITY           SKY/WX    TMP DP  RH WIND       PRES   REMARKS
LINCOLN        SUNNY     33  20  58 N7        30.40S WCI  27
6HR MIN TEMP:  18; 6HR MAX TEMP:  33; 6HR PCP: TRACE;

OMAHA EPPLEY   MOSUNNY   32  17  54 N9        30.39S WCI  24
6HR MIN TEMP:  19; 6HR MAX TEMP:  32;

FALLS CITY     MOSUNNY   30  20  66 SW5       30.40F WCI  25
6HR MIN TEMP:  19; 6HR MAX TEMP:  30; 6HR PCP: TRACE;

$$

NEZ044-045-051>053-067-011900-
OMAHA AREA

CITY           SKY/WX    TMP DP  RH WIND       PRES   REMARKS
OMAHA EPPLEY   MOSUNNY   32  17  54 N9        30.39S WCI  24
6HR MIN TEMP:  19; 6HR MAX TEMP:  32;

BLAIR          SUNNY     31  18  60 NW8       30.37S WCI  23
OFFUTT AFB     SUNNY     33  17  53 N6        30.38S WCI  27
$$


USA.gov is the U.S. government's official web portal to all federal, state and local government web resources and services.